• In Uzbekistan
  • List of Countries
  • For 7 days
  • Water Temperature
  • Satellite Maps
  • Weather Map
  • Weather Widgets
  • user-avatar
    Login

    Hourly Weather Kuweit

    Today, 17 October, Tuesday

    Time Temperature Precipitation Wind Pressure Humidity
    00:00 +29°C° 0 mm 3 mps 755 mmHg 23%
    01:00 +29°C° 0 mm 4 mps 755 mmHg 23%
    02:00 +29°C° 0 mm 4 mps 755 mmHg 22%
    03:00 +29°C° 0 mm 4 mps 755 mmHg 22%
    04:00 +28°C° 0 mm 4 mps 755 mmHg 23%
    05:00 +28°C° 0 mm 4 mps 755 mmHg 23%
    06:00 +28°C° 0 mm 5 mps 756 mmHg 24%
    07:00 +30°C° 0 mm 5 mps 756 mmHg 21%
    08:00 +33°C° 0 mm 6 mps 756 mmHg 18%
    09:00 +35°C° 0 mm 6 mps 757 mmHg 14%
    10:00 +36°C° 0 mm 6 mps 757 mmHg 13%
    11:00 +38°C° 0 mm 6 mps 756 mmHg 12%
    12:00 +39°C° 0 mm 6 mps 756 mmHg 10%
    13:00 +39°C° 0 mm 6 mps 756 mmHg 10%
    14:00 +40°C° 0 mm 5 mps 755 mmHg 10%
    15:00 +39°C° 0 mm 5 mps 755 mmHg 12%
    16:00 +37°C° 0 mm 5 mps 755 mmHg 14%
    17:00 +35°C° 0 mm 4 mps 755 mmHg 16%
    18:00 +33°C° 0 mm 3 mps 755 mmHg 18%
    19:00 +33°C° 0 mm 3 mps 755 mmHg 18%
    20:00 +31°C° 0 mm 3 mps 755 mmHg 18%
    21:00 +32°C° 0 mm 4 mps 755 mmHg 18%
    22:00 +30°C° 0 mm 4 mps 755 mmHg 18%
    23:00 +30°C° 0 mm 5 mps 756 mmHg 18%

    Tomorrow, 18 October, Wednesday

    Time Temperature Precipitation Wind Pressure Humidity
    00:00 +29°C° 0 mm 5 mps 756 mmHg 18%
    01:00 +29°C° 0 mm 6 mps 756 mmHg 19%
    02:00 +29°C° 0 mm 6 mps 756 mmHg 20%
    03:00 +28°C° 0 mm 7 mps 756 mmHg 21%
    04:00 +28°C° 0 mm 7 mps 756 mmHg 22%
    05:00 +28°C° 0 mm 7 mps 757 mmHg 23%
    06:00 +28°C° 0 mm 7 mps 757 mmHg 24%
    07:00 +29°C° 0 mm 7 mps 757 mmHg 22%
    08:00 +32°C° 0 mm 7 mps 757 mmHg 19%
    09:00 +34°C° 0 mm 7 mps 758 mmHg 17%
    10:00 +35°C° 0 mm 7 mps 757 mmHg 15%
    11:00 +38°C° 0 mm 6 mps 757 mmHg 14%
    12:00 +39°C° 0 mm 6 mps 757 mmHg 12%
    13:00 +39°C° 0 mm 5 mps 757 mmHg 12%
    14:00 +40°C° 0 mm 4 mps 756 mmHg 12%
    15:00 +40°C° 0 mm 4 mps 756 mmHg 12%
    16:00 +37°C° 0 mm 3 mps 756 mmHg 14%
    17:00 +35°C° 0 mm 3 mps 756 mmHg 16%
    18:00 +33°C° 0 mm 3 mps 757 mmHg 18%
    19:00 +33°C° 0 mm 3 mps 757 mmHg 17%
    20:00 +32°C° 0 mm 4 mps 757 mmHg 17%
    21:00 +32°C° 0 mm 4 mps 757 mmHg 17%
    22:00 +32°C° 0 mm 5 mps 757 mmHg 17%
    23:00 +30°C° 0 mm 5 mps 757 mmHg 17%

    Day after tomorrow, 19 October, Thursday

    Time Temperature Precipitation Wind Pressure Humidity
    00:00 +30°C° 0 mm 6 mps 757 mmHg 18%
    01:00 +29°C° 0 mm 6 mps 757 mmHg 18%
    02:00 +29°C° 0 mm 6 mps 758 mmHg 18%
    03:00 +28°C° 0 mm 6 mps 758 mmHg 18%
    04:00 +28°C° 0 mm 6 mps 758 mmHg 18%
    05:00 +27°C° 0 mm 6 mps 758 mmHg 18%
    06:00 +27°C° 0 mm 6 mps 758 mmHg 18%
    07:00 +29°C° 0 mm 6 mps 759 mmHg 16%
    08:00 +32°C° 0 mm 6 mps 759 mmHg 14%
    09:00 +34°C° 0 mm 6 mps 760 mmHg 12%
    10:00 +35°C° 0 mm 6 mps 760 mmHg 11%
    11:00 +38°C° 0 mm 6 mps 759 mmHg 10%
    12:00 +39°C° 0 mm 6 mps 759 mmHg 9%
    13:00 +39°C° 0 mm 5 mps 759 mmHg 9%
    14:00 +39°C° 0 mm 5 mps 758 mmHg 9%
    15:00 +40°C° 0 mm 5 mps 758 mmHg 9%
    16:00 +37°C° 0 mm 4 mps 758 mmHg 11%
    17:00 +35°C° 0 mm 4 mps 758 mmHg 12%
    18:00 +34°C° 0 mm 4 mps 758 mmHg 13%
    19:00 +33°C° 0 mm 4 mps 758 mmHg 14%
    20:00 +32°C° 0 mm 4 mps 759 mmHg 14%
    21:00 +30°C° 0 mm 4 mps 759 mmHg 15%
    22:00 +30°C° 0 mm 4 mps 759 mmHg 16%
    23:00 +29°C° 0 mm 4 mps 759 mmHg 16%

    20 October, Friday

    Time Temperature Precipitation Wind Pressure Humidity
    00:00 +29°C° 0 mm 4 mps 758 mmHg 17%
    01:00 +28°C° 0 mm 4 mps 758 mmHg 18%
    02:00 +28°C° 0 mm 4 mps 758 mmHg 18%
    03:00 +27°C° 0 mm 4 mps 758 mmHg 19%
    04:00 +27°C° 0 mm 4 mps 758 mmHg 19%
    05:00 +27°C° 0 mm 4 mps 758 mmHg 19%
    06:00 +26°C° 0 mm 4 mps 758 mmHg 20%
    07:00 +28°C° 0 mm 4 mps 759 mmHg 17%
    08:00 +30°C° 0 mm 3 mps 759 mmHg 14%
    09:00 +33°C° 0 mm 3 mps 760 mmHg 12%
    10:00 +34°C° 0 mm 3 mps 759 mmHg 11%
    11:00 +36°C° 0 mm 3 mps 759 mmHg 10%
    12:00 +37°C° 0 mm 3 mps 758 mmHg 8%
    13:00 +37°C° 0 mm 2 mps 758 mmHg 8%
    14:00 +38°C° 0 mm 2 mps 758 mmHg 8%
    15:00 +38°C° 0 mm 2 mps 757 mmHg 8%
    16:00 +35°C° 0 mm 1 mps 757 mmHg 10%
    17:00 +33°C° 0 mm 1 mps 757 mmHg 11%
    18:00 +31°C° 0 mm 1 mps 757 mmHg 13%
    19:00 +30°C° 0 mm 1 mps 757 mmHg 13%
    20:00 +30°C° 0 mm 1 mps 757 mmHg 14%
    21:00 +29°C° 0 mm 1 mps 758 mmHg 14%
    22:00 +28°C° 0 mm 1 mps 757 mmHg 15%
    23:00 +27°C° 0 mm 2 mps 757 mmHg 15%

    21 October, Saturday

    Time Temperature Precipitation Wind Pressure Humidity
    00:00 +27°C° 0 mm 2 mps 757 mmHg 16%
    01:00 +27°C° 0 mm 2 mps 757 mmHg 16%
    02:00 +27°C° 0 mm 3 mps 757 mmHg 15%
    03:00 +27°C° 0 mm 3 mps 757 mmHg 15%
    04:00 +27°C° 0 mm 3 mps 757 mmHg 15%
    05:00 +26°C° 0 mm 3 mps 757 mmHg 15%
    06:00 +26°C° 0 mm 3 mps 757 mmHg 16%
    07:00 +28°C° 0 mm 3 mps 758 mmHg 14%
    08:00 +30°C° 0 mm 3 mps 758 mmHg 12%
    09:00 +33°C° 0 mm 3 mps 758 mmHg 10%
    10:00 +35°C° 0 mm 3 mps 758 mmHg 9%
    11:00 +36°C° 0 mm 3 mps 757 mmHg 9%
    12:00 +37°C° 0 mm 3 mps 757 mmHg 8%
    13:00 +37°C° 0 mm 2 mps 756 mmHg 8%
    14:00 +38°C° 0 mm 2 mps 756 mmHg 8%
    15:00 +38°C° 0 mm 2 mps 755 mmHg 8%
    16:00 +36°C° 0 mm 2 mps 755 mmHg 9%
    17:00 +34°C° 0 mm 2 mps 756 mmHg 11%
    18:00 +31°C° 0 mm 2 mps 756 mmHg 12%
    19:00 +30°C° 0 mm 2 mps 756 mmHg 13%
    20:00 +29°C° 0 mm 2 mps 756 mmHg 14%
    21:00 +29°C° 0 mm 2 mps 757 mmHg 14%
    22:00 +28°C° 0 mm 3 mps 756 mmHg 15%
    23:00 +28°C° 0 mm 3 mps 756 mmHg 15%

    22 October, Sunday

    Time Temperature Precipitation Wind Pressure Humidity
    00:00 +28°C° 0 mm 4 mps 756 mmHg 16%
    01:00 +28°C° 0 mm 4 mps 756 mmHg 17%
    02:00 +27°C° 0 mm 4 mps 756 mmHg 18%
    03:00 +27°C° 0 mm 4 mps 756 mmHg 19%
    04:00 +26°C° 0 mm 4 mps 756 mmHg 19%
    05:00 +26°C° 0 mm 4 mps 756 mmHg 19%
    06:00 +26°C° 0 mm 4 mps 757 mmHg 20%
    07:00 +28°C° 0 mm 4 mps 757 mmHg 17%
    08:00 +30°C° 0 mm 4 mps 757 mmHg 14%
    09:00 +34°C° 0 mm 4 mps 757 mmHg 12%
    10:00 +35°C° 0 mm 4 mps 757 mmHg 11%
    11:00 +37°C° 0 mm 4 mps 757 mmHg 10%
    12:00 +38°C° 0 mm 4 mps 756 mmHg 9%
    13:00 +38°C° 0 mm 4 mps 756 mmHg 8%
    14:00 +38°C° 0 mm 3 mps 755 mmHg 8%
    15:00 +38°C° 0 mm 3 mps 755 mmHg 8%
    16:00 +36°C° 0 mm 3 mps 755 mmHg 10%
    17:00 +34°C° 0 mm 2 mps 755 mmHg 11%
    18:00 +30°C° 0 mm 2 mps 755 mmHg 13%
    19:00 +30°C° 0 mm 2 mps 755 mmHg 14%
    20:00 +29°C° 0 mm 2 mps 756 mmHg 15%
    21:00 +28°C° 0 mm 2 mps 756 mmHg 16%
    22:00 +28°C° 0 mm 2 mps 755 mmHg 16%
    23:00 +27°C° 0 mm 1 mps 755 mmHg 16%
    Show more